TJS-1

Last updated on Nov. 14, 2019, 4:21 a.m. UTC

1 40892U 15046A   19316.79191628 -.00000142  00000-0  10000-3 0  9994
2 40892   0.0497  57.8290 0006001 318.0113 115.9140  1.00271576 15400
UTC
Height (km)
Latitude
Longitude
Inclination
Orbital Period
UTC large
Height (km)
Speed (km/s)
/
Latitude / Longitude
Inclination (degrees)
Orbital Period (minutes)
Azimuth
Elevation
Range (km)
Doppler Factor
iOS Compass Heading
iOS Angle

Next 30 passes for location: Hong Kong

Rise time Rise Azimuth (degrees) Set time Set Azimuth (degrees) Duration Max altitude (degrees)

No matching passes for this satellites